Regional Weather Roundup
Issued by NWS New Orleans/Baton Rouge, LA

Home | Current Version | Previous Version | Graphics & Text | Print | Product List | Glossary On
Versions: 1 2 3 4 5 6 7 8 9 10 11 12 13 14 15 16 17 18 19 20 21 22 23 24 25 26 27 28 29 30 31 32 33 34 35 36 37 38 39 40 41 42 43 44 45 46 47 48 49 50
080
ASUS44 KLIX 291905
RWRLIX
NEW ORLEANS REGIONAL WEATHER ROUNDUP
NATIONAL WEATHER SERVICE NEW ORLEANS LA
200 PM CDT FRI AUG 29 2014

NOTE: "FAIR" INDICATES FEW OR NO CLOUDS BELOW 12,000 FEET WITH NO
      SIGNIFICANT WEATHER AND/OR OBSTRUCTIONS TO VISIBILITY.
      SKY/WX - SKY CONDITION AND SIGNIFICANT WEATHER.
      TMP - AIR TEMPERATURE.     DP    - DEWPOINT TEMPERATURE.
      RH  - RELATIVE HUMIDITY.   PRES  - PRESSURE.
      HI  - HEAT INDEX.          WCI   - WIND CHILL INDEX.

*  THESE STATIONS ARE NOT NWS OR FAA STATIONS AND ARE NOT UNDER
   NWS QUALITY CONTROL.

LAZ038-040-048-061>063-065>067-069-292000-
SOUTHEAST LOUISIANA

CITY           SKY/WX    TMP DP  RH WIND       PRES   REMARKS
N.O. AUDUBON     N/A     76  75  97 MISG        N/A
N.O. INTL ARPT LGT RAIN  76  73  91 S5        29.97F
N.O. LAKEFRONT CLOUDY    77  75  93 S8        29.97F
N.O. DOWNTOWN* MOCLDY    79  72  78 S6        29.97F
SLIDELL        CLOUDY    85  76  74 E3        29.96F
BATON ROUGE    LGT RAIN  83  75  77 SE7       29.97F
BOOTHVILLE     LGT RAIN  80  77  90 NW6       29.97S
BELLE CHASSE   LGT RAIN  77  73  87 S3        29.97F
BOGALUSA*        N/A     89  72  57 E8        29.98F HX  96
GALLIANO*      NOT AVBL
NEW ROADS*     MOCLDY    85  74  69 E9        29.97S
GONZALES*        N/A     78  76  95 S3        29.96F
HAMMOND*       CLOUDY    86  73  66 CALM      29.98F
HOUMA*         LGT RAIN  73  72  94 CALM      29.97F
PORT FOURCHON* PTCLDY    77  73  88 CALM      29.99F FOG

$$

MSZ070-080>082-292000-
SOUTHERN MISSISSIPPI

CITY           SKY/WX    TMP DP  RH WIND       PRES   REMARKS
MCCOMB         CLOUDY    88  69  53 S8        29.99F
GULFPORT       CLOUDY    87  75  67 E16       29.97S HX  96
BILOXI         CLOUDY    88  75  65 SE18G25   29.98S HX  97
PASCAGOULA     CLOUDY    87  76  69 SE15G25   29.98F HX  97
STENNIS ARPT*  PTSUNNY  N/A N/A N/A SE7       29.97

$$

COASTAL OBSERVATIONS
LAKE AND NEARSHORE STATIONS

STATION/POSITION TIME  TEMP    WIND        PRES    WAVE
                       AIR SEA DIR/SP/G            HT/PER
                 (UTC) (F)     (DEG/KT/KT) (MB)    (FT/S)
PASCAGOULA       1900   85     130/ 18/ 25 1015.1
WAVELAND YACHT   1900   85     110/ 12/ 15 1014.3
GRAND ISLE       1900   78 83  320/  5/  6 1015.4
SOUTHWEST PASS   1900   79 89  350/  4/  5 1014.8
NEW CANAL        1900   78 83  210/  4/  6 1015.1
SHELL BEACH      1900   76 81  240/  7/  9 1014.6

OFFSHORE STATIONS

STATION/POSITION TIME  TEMP    WIND        PRES    WAVE
                       AIR SEA DIR/SP/G            HT/PER
                 (UTC) (F)     (DEG/KT/KT) (MB)    (FT/S)
64 S DAUPHIN ISL 1850   82 85  170/  8/ 10 1014.3

$$




USA.gov is the U.S. government's official web portal to all federal, state and local government web resources and services.